Tracking 25723 objects as of 27-Jun-2022
HD Live streaming from Space Station
objects crossing your sky now

STTW-T2

Track STTW-T2 now!
STTW-T2 is classified as:


NORAD ID: 14899
Int'l Code: 1984-035A
Perigee: 35,716.9 km
Apogee: 35,819.4 km
Inclination: 11.9 °
Period: 1,434.8 minutes
Semi major axis: 42139 km
RCS: 3.981 m2 (large)
Launch date: April 8, 1984
Source: People's Republic of China (PRC)
Launch site: Xichang Space Center, China (XSC)
aabbcc
Your satellite tracking list
Your tracking list is empty




NASA's NSSDC Master Catalog

Two Line Element Set (TLE):
1 14899U 84035A   22177.35192576 -.00000354  00000-0  00000-0 0  9991
2 14899  11.9372 328.4906 0012169 142.5771  36.3344  1.00363164 32815
Source of the keplerian elements: AFSPC